Weather History for KPNC - November, 2012

Change the Weather History Date:

Friday, November 9, 2012

  Actual Average Record
Temperature  
Mean Temperature 72 °F -  
Max Temperature 81 °F 65 °F 83 °F (1966)
Min Temperature 63 °F 42 °F 25 °F (1953)
Cooling Degree Days 7    
Growing Degree Days 22 (Base 50)    
Moisture  
Dew Point 55 °F    
Average Humidity 56    
Maximum Humidity 72    
Minimum Humidity 42    
Precipitation  
Precipitation 0.00 in - - ()
Sea Level Pressure  
Sea Level Pressure 29.77 in    
Wind  
Wind Speed 14 mph (South)    
Max Wind Speed 18 mph    
Max Gust Speed 32 mph    
Visibility 10 miles    
Events      
Averages and records for this station are not official NWS values.
T = Trace of Precipitation, MM = Missing Value Source: NWS Daily Summary

Daily Weather History Graph

Daily Weather History Graph

Search for Another Location

Airport or City:

Trip Planner

Search our weather history database for the weather conditions in past years. The results will help you decide how hot, cold, wet, or windy it might be!

Date:

Astronomy

Nov. 09, 2012 Rise Set
Actual Time 7:00 AM CST 5:23 PM CST
Civil Twilight 6:33 AM CST 5:50 PM CST
Nautical Twilight 6:02 AM CST 6:21 PM CST
Astronomical Twilight 5:32 AM CST 6:52 PM CST
Moon 2:07 AM CST (11/9) 2:31 PM CST (11/9)
Length of Visible Light 11h 17m
Length of Day
10h 22m
Waning Crescent, 23% of the Moon is Illuminated
Nov 9
Waning Crescent
Nov 13
New
Nov 20
First Quarter
Nov 28
Full
Dec 6
Last Quarter

Hourly Weather History & Observations

Time (CST) Temp. Heat Index Dew Point Humidity Pressure Visibility Wind Dir Wind Speed Gust Speed Precip Events Conditions
12:53 AM 66.9 °F - 54.0 °F 63% 29.80 in 10.0 mi SSE 18.4 mph 29.9 mph N/A   Clear
1:53 AM 66.0 °F - 54.0 °F 65% 29.79 in 10.0 mi SSE 15.0 mph 26.5 mph N/A   Clear
2:53 AM 66.0 °F - 54.0 °F 65% 29.79 in 10.0 mi SSE 12.7 mph 24.2 mph N/A   Clear
3:53 AM 66.0 °F - 53.1 °F 63% 29.79 in 10.0 mi South 9.2 mph 19.6 mph N/A   Clear
4:53 AM 66.0 °F - 52.0 °F 60% 29.80 in 10.0 mi South 10.4 mph 19.6 mph N/A   Clear
5:53 AM 64.0 °F - 53.1 °F 67% 29.81 in 10.0 mi South 13.8 mph 19.6 mph N/A   Clear
6:53 AM 63.0 °F - 54.0 °F 72% 29.81 in 10.0 mi South 10.4 mph 20.7 mph N/A   Clear
7:53 AM 63.0 °F - 54.0 °F 72% 29.83 in 10.0 mi South 9.2 mph 16.1 mph N/A   Clear
8:53 AM 68.0 °F - 55.0 °F 63% 29.83 in 10.0 mi South 8.1 mph - N/A   Clear
9:53 AM 72.0 °F - 57.0 °F 59% 29.82 in 10.0 mi South 13.8 mph 27.6 mph N/A   Clear
10:53 AM 75.9 °F - 57.0 °F 52% 29.81 in 10.0 mi South 15.0 mph 29.9 mph N/A   Clear
11:53 AM 78.1 °F - 57.0 °F 48% 29.78 in 10.0 mi South 13.8 mph 26.5 mph N/A   Clear
12:53 PM 80.1 °F 80.2 °F 55.9 °F 43% 29.75 in 10.0 mi South 13.8 mph 27.6 mph N/A   Clear
1:53 PM 80.1 °F 80.2 °F 55.9 °F 43% 29.72 in 10.0 mi South 16.1 mph 26.5 mph N/A   Clear
2:53 PM 81.0 °F 80.8 °F 55.9 °F 42% 29.72 in 10.0 mi South 15.0 mph 24.2 mph N/A   Clear
3:53 PM 80.1 °F 80.2 °F 55.9 °F 43% 29.71 in 10.0 mi South 13.8 mph 32.2 mph N/A   Clear
4:53 PM 78.1 °F - 57.0 °F 48% 29.71 in 10.0 mi South 13.8 mph 21.9 mph N/A   Clear
5:53 PM 75.9 °F - 57.0 °F 52% 29.74 in 10.0 mi South 10.4 mph 19.6 mph N/A   Clear
6:53 PM 73.9 °F - 57.9 °F 57% 29.75 in 10.0 mi SSE 16.1 mph - N/A   Clear
7:53 PM 73.0 °F - 57.0 °F 57% 29.75 in 10.0 mi SSE 18.4 mph 27.6 mph N/A   Clear
8:53 PM 72.0 °F - 55.9 °F 57% 29.75 in 10.0 mi South 13.8 mph 26.5 mph N/A   Clear
9:53 PM 72.0 °F - 55.0 °F 55% 29.76 in 10.0 mi South 13.8 mph 25.3 mph N/A   Clear
10:53 PM 72.0 °F - 54.0 °F 53% 29.75 in 10.0 mi South 11.5 mph 23.0 mph N/A   Clear
11:53 PM 73.0 °F - 53.1 °F 49% 29.75 in 10.0 mi South 12.7 mph 24.2 mph N/A   Clear